• In Deutschland
  • Länderverzeichnis
  • Für 7 Tage
  • Wassertemperatur
  • Satellitenkarten
  • Wetterkarte
  • Widgets
  • user-avatar
    Anmelden

    Stündliche Wetter Maloe Koshkino

    Heute, 24 April, Dienstag

    Zeit Temperatur Niederschläge Wind Luftdruck Luftfeuchtigkeit
    00:00 +3°C° 0 mm 1 m/S 740 mmHg 59%
    01:00 +2°C° 0 mm 2 m/S 740 mmHg 60%
    02:00 +2°C° 0 mm 2 m/S 740 mmHg 62%
    03:00 +2°C° 0 mm 2 m/S 740 mmHg 63%
    04:00 +2°C° 0 mm 2 m/S 740 mmHg 64%
    05:00 +1°C° 0 mm 2 m/S 740 mmHg 65%
    06:00 +3°C° 0 mm 2 m/S 740 mmHg 61%
    07:00 +4°C° 0 mm 3 m/S 739 mmHg 57%
    08:00 +7°C° 0 mm 3 m/S 739 mmHg 53%
    09:00 +8°C° 0 mm 3 m/S 739 mmHg 53%
    10:00 +9°C° 0 mm 3 m/S 739 mmHg 54%
    11:00 +10°C° 0 mm 4 m/S 739 mmHg 55%
    12:00 +10°C° 0 mm 4 m/S 738 mmHg 56%
    13:00 +10°C° 0 mm 4 m/S 738 mmHg 57%
    14:00 +10°C° 0 mm 4 m/S 738 mmHg 58%
    15:00 +10°C° 0 mm 4 m/S 737 mmHg 61%
    16:00 +10°C° 0 mm 3 m/S 737 mmHg 65%
    17:00 +9°C° 0 mm 3 m/S 737 mmHg 68%
    18:00 +9°C° 0 mm 3 m/S 737 mmHg 72%
    19:00 +8°C° 0 mm 2 m/S 736 mmHg 76%
    20:00 +8°C° 0 mm 2 m/S 736 mmHg 80%
    21:00 +7°C° 0 mm 2 m/S 736 mmHg 83%
    22:00 +7°C° 0 mm 2 m/S 736 mmHg 87%
    23:00 +7°C° 0 mm 2 m/S 736 mmHg 90%

    Morgen, 25 April, Mittwoch

    Zeit Temperatur Niederschläge Wind Luftdruck Luftfeuchtigkeit
    00:00 +7°C° 0 mm 2 m/S 735 mmHg 92%
    01:00 +7°C° 0 mm 2 m/S 735 mmHg 93%
    02:00 +6°C° 0 mm 2 m/S 735 mmHg 94%
    03:00 +6°C° 0 mm 2 m/S 735 mmHg 94%
    04:00 +5°C° 0 mm 2 m/S 735 mmHg 94%
    05:00 +4°C° 0 mm 3 m/S 735 mmHg 94%
    06:00 +7°C° 0 mm 3 m/S 735 mmHg 86%
    07:00 +8°C° 0 mm 3 m/S 735 mmHg 78%
    08:00 +10°C° 0 mm 3 m/S 735 mmHg 70%
    09:00 +11°C° 0 mm 4 m/S 735 mmHg 68%
    10:00 +12°C° 0 mm 5 m/S 735 mmHg 66%
    11:00 +13°C° 0 mm 5 m/S 735 mmHg 64%
    12:00 +14°C° 0,4 mm 6 m/S 735 mmHg 64%
    13:00 +14°C° 0,4 mm 6 m/S 735 mmHg 64%
    14:00 +14°C° 0,4 mm 7 m/S 734 mmHg 65%
    15:00 +13°C° 0,3 mm 6 m/S 734 mmHg 66%
    16:00 +13°C° 0,3 mm 5 m/S 734 mmHg 68%
    17:00 +12°C° 0,3 mm 4 m/S 734 mmHg 70%
    18:00 +11°C° 0 mm 4 m/S 734 mmHg 72%
    19:00 +10°C° 0 mm 3 m/S 735 mmHg 75%
    20:00 +9°C° 0 mm 3 m/S 735 mmHg 78%
    21:00 +8°C° 0 mm 3 m/S 735 mmHg 82%
    22:00 +8°C° 0 mm 3 m/S 735 mmHg 85%
    23:00 +7°C° 0 mm 2 m/S 735 mmHg 89%

    übermorgen, 26 April, Donnerstag

    Zeit Temperatur Niederschläge Wind Luftdruck Luftfeuchtigkeit
    00:00 +7°C° 0 mm 2 m/S 734 mmHg 91%
    01:00 +7°C° 0 mm 2 m/S 734 mmHg 92%
    02:00 +7°C° 0 mm 2 m/S 734 mmHg 94%
    03:00 +7°C° 0,7 mm 2 m/S 734 mmHg 95%
    04:00 +7°C° 0,7 mm 2 m/S 733 mmHg 96%
    05:00 +8°C° 0,7 mm 1 m/S 733 mmHg 97%
    06:00 +8°C° 1,2 mm 2 m/S 733 mmHg 96%
    07:00 +8°C° 1,2 mm 2 m/S 733 mmHg 95%
    08:00 +9°C° 1,2 mm 2 m/S 733 mmHg 94%
    09:00 +10°C° 0,4 mm 3 m/S 733 mmHg 89%
    10:00 +11°C° 0,4 mm 4 m/S 733 mmHg 85%
    11:00 +12°C° 0,4 mm 5 m/S 733 mmHg 81%
    12:00 +13°C° 0,1 mm 5 m/S 734 mmHg 73%
    13:00 +14°C° 0,1 mm 5 m/S 734 mmHg 65%
    14:00 +15°C° 0,1 mm 6 m/S 734 mmHg 57%
    15:00 +15°C° 0 mm 5 m/S 734 mmHg 57%
    16:00 +15°C° 0 mm 4 m/S 735 mmHg 57%
    17:00 +14°C° 0 mm 4 m/S 735 mmHg 58%
    18:00 +13°C° 0 mm 3 m/S 735 mmHg 64%
    19:00 +12°C° 0 mm 2 m/S 736 mmHg 70%
    20:00 +9°C° 0 mm 2 m/S 736 mmHg 76%
    21:00 +9°C° 0 mm 2 m/S 737 mmHg 79%
    22:00 +8°C° 0 mm 2 m/S 737 mmHg 82%
    23:00 +8°C° 0 mm 2 m/S 737 mmHg 85%

    27 April, Freitag

    Zeit Temperatur Niederschläge Wind Luftdruck Luftfeuchtigkeit
    00:00 +8°C° 0 mm 2 m/S 737 mmHg 85%
    01:00 +8°C° 0 mm 2 m/S 737 mmHg 85%
    02:00 +8°C° 0 mm 2 m/S 737 mmHg 85%
    03:00 +8°C° 0 mm 2 m/S 737 mmHg 86%
    04:00 +8°C° 0 mm 2 m/S 737 mmHg 87%
    05:00 +8°C° 0 mm 3 m/S 737 mmHg 88%
    06:00 +9°C° 0 mm 3 m/S 737 mmHg 84%
    07:00 +10°C° 0 mm 3 m/S 737 mmHg 79%
    08:00 +11°C° 0 mm 3 m/S 738 mmHg 75%
    09:00 +11°C° 0,3 mm 4 m/S 738 mmHg 70%
    10:00 +12°C° 0,3 mm 4 m/S 738 mmHg 66%
    11:00 +13°C° 0,3 mm 4 m/S 738 mmHg 61%
    12:00 +13°C° 0,5 mm 5 m/S 738 mmHg 60%
    13:00 +13°C° 0,5 mm 5 m/S 738 mmHg 58%
    14:00 +13°C° 0,5 mm 6 m/S 738 mmHg 56%
    15:00 +13°C° 0,2 mm 5 m/S 739 mmHg 57%
    16:00 +13°C° 0,2 mm 5 m/S 739 mmHg 58%
    17:00 +13°C° 0,2 mm 5 m/S 739 mmHg 59%
    18:00 +11°C° 0 mm 4 m/S 740 mmHg 64%
    19:00 +10°C° 0 mm 4 m/S 741 mmHg 70%
    20:00 +8°C° 0 mm 3 m/S 741 mmHg 75%
    21:00 +7°C° 0 mm 3 m/S 742 mmHg 78%
    22:00 +7°C° 0 mm 3 m/S 742 mmHg 80%
    23:00 +5°C° 0 mm 3 m/S 743 mmHg 82%

    28 April, Samstag

    Zeit Temperatur Niederschläge Wind Luftdruck Luftfeuchtigkeit
    00:00 +6°C° 0 mm 2 m/S 743 mmHg 84%
    01:00 +5°C° 0 mm 2 m/S 744 mmHg 87%
    02:00 +4°C° 0 mm 2 m/S 744 mmHg 89%
    03:00 +4°C° 0 mm 2 m/S 744 mmHg 89%
    04:00 +4°C° 0 mm 2 m/S 745 mmHg 89%
    05:00 +4°C° 0 mm 2 m/S 745 mmHg 88%
    06:00 +6°C° 0 mm 2 m/S 745 mmHg 81%
    07:00 +8°C° 0 mm 2 m/S 745 mmHg 73%
    08:00 +10°C° 0 mm 2 m/S 746 mmHg 65%
    09:00 +12°C° 0 mm 2 m/S 746 mmHg 59%
    10:00 +13°C° 0 mm 2 m/S 746 mmHg 54%
    11:00 +13°C° 0 mm 3 m/S 746 mmHg 48%
    12:00 +14°C° 0 mm 3 m/S 746 mmHg 46%
    13:00 +14°C° 0 mm 3 m/S 746 mmHg 44%
    14:00 +16°C° 0 mm 3 m/S 745 mmHg 42%
    15:00 +16°C° 0 mm 2 m/S 745 mmHg 44%
    16:00 +16°C° 0 mm 2 m/S 745 mmHg 46%
    17:00 +16°C° 0 mm 2 m/S 744 mmHg 48%
    18:00 +14°C° 0 mm 2 m/S 744 mmHg 54%
    19:00 +12°C° 0 mm 2 m/S 744 mmHg 60%
    20:00 +10°C° 0 mm 2 m/S 744 mmHg 66%
    21:00 +10°C° 0 mm 2 m/S 744 mmHg 67%
    22:00 +9°C° 0 mm 3 m/S 744 mmHg 68%
    23:00 +9°C° 0 mm 3 m/S 744 mmHg 70%

    29 April, Sonntag

    Zeit Temperatur Niederschläge Wind Luftdruck Luftfeuchtigkeit
    00:00 +9°C° 0,1 mm 3 m/S 743 mmHg 71%
    01:00 +9°C° 0,1 mm 3 m/S 743 mmHg 71%
    02:00 +9°C° 0,1 mm 3 m/S 743 mmHg 72%
    03:00 +9°C° 0,5 mm 3 m/S 743 mmHg 75%
    04:00 +9°C° 0,5 mm 3 m/S 742 mmHg 78%
    05:00 +9°C° 0,5 mm 3 m/S 742 mmHg 81%
    06:00 +9°C° 0,8 mm 3 m/S 742 mmHg 85%
    07:00 +9°C° 0,8 mm 3 m/S 742 mmHg 88%
    08:00 +9°C° 0,8 mm 2 m/S 742 mmHg 92%
    09:00 +10°C° 0,2 mm 2 m/S 742 mmHg 90%
    10:00 +12°C° 0,2 mm 2 m/S 742 mmHg 89%
    11:00 +12°C° 0,2 mm 1 m/S 742 mmHg 88%
    12:00 +13°C° 0 mm 1 m/S 742 mmHg 85%
    13:00 +14°C° 0 mm 1 m/S 742 mmHg 82%
    14:00 +15°C° 0 mm 1 m/S 742 mmHg 79%
    15:00 +15°C° 0 mm 1 m/S 742 mmHg 79%
    16:00 +15°C° 0 mm 1 m/S 742 mmHg 78%
    17:00 +15°C° 0 mm 1 m/S 742 mmHg 78%
    18:00 +13°C° 0 mm 1 m/S 742 mmHg 82%
    19:00 +12°C° 0 mm 1 m/S 742 mmHg 86%
    20:00 +11°C° 0 mm 1 m/S 743 mmHg 90%
    21:00 +10°C° 0 mm 1 m/S 743 mmHg 91%
    22:00 +9°C° 0 mm 1 m/S 743 mmHg 91%
    23:00 +9°C° 0 mm 1 m/S 743 mmHg 92%
    Mehr zeigen